Temperature
26 27 28 29 29 29 29 29 29 30 30 29 30 29 29 27 27 26 25 24 22 21 20 19 18 18 18 17 17 17 17 17 17 17 17 17 17 17 17 17 17 17 17 16
26 27 28 29 28 28 28 28 29 30 30 29 29 29 29 28 27 26 25 24 23 21 20 19 18 17 17 17 17 17 17 17 17 17 17 17 17 17 17 17 17 17 16 16
27 28 29 28 28 27 28 28 29 29 29 29 29 29 29 28 26 25 24 24 23 22 21 19 18 17 17 17 17 17 17 17 17 17 17 17 17 17 17 17 17 16 16 16
28 29 28 27 28 28 28 29 29 28 29 29 29 28 29 28 27 26 25 24 23 22 21 20 18 18 17 17 17 17 17 17 17 17 17 17 17 17 17 17 17 16 16 16
27 28 27 27 28 28 29 29 28 28 28 29 29 28 29 28 28 27 26 24 23 22 21 20 19 18 17 17 17 17 17 17 17 17 17 17 17 17 17 17 17 16 16 16
28 28 28 29 29 29 29 28 28 28 29 28 28 28 29 30 28 28 26 25 23 22 21 20 19 18 17 17 17 17 17 17 17 17 17 17 17 17 17 17 16 16 16 16
27 28 29 29 28 28 28 28 27 27 27 28 28 28 28 29 28 27 26 25 23 22 21 20 19 18 18 17 17 17 17 17 17 17 17 17 17 17 17 17 17 17 16 16
27 27 29 29 28 29 28 28 27 27 27 28 28 28 29 28 27 26 25 24 23 22 21 20 19 18 18 17 17 17 17 17 17 17 17 17 17 17 17 17 17 17 17 16
28 28 29 29 29 29 28 28 30 28 28 27 28 29 29 28 27 26 25 24 23 22 21 20 19 19 18 17 17 17 17 17 17 17 17 17 17 17 17 17 17 17 16 16
28 27 28 29 28 28 29 29 28 28 26 26 28 28 29 28 27 26 26 25 23 22 21 20 19 19 18 18 17 17 17 17 17 17 17 17 17 17 17 17 17 16 16 16
28 27 28 28 28 28 28 28 28 28 28 27 27 28 29 28 27 27 26 24 23 22 21 20 20 19 18 18 17 17 17 17 17 17 17 17 17 17 17 17 17 17 16 16
27 27 27 28 28 28 28 28 28 27 27 27 27 28 28 28 27 26 25 23 22 22 21 20 20 19 18 18 18 17 17 17 17 17 17 17 17 17 17 17 17 17 16 16
26 26 25 26 27 27 27 28 28 28 27 27 27 28 27 27 26 25 24 23 22 21 20 20 19 19 18 18 18 17 17 17 17 17 17 17 17 17 17 17 17 17 16 16
24 25 25 26 26 27 26 26 27 27 27 27 27 28 27 26 26 25 23 22 21 20 20 19 19 18 18 18 17 17 17 17 17 17 17 17 17 17 17 17 17 17 16 16
25 25 25 26 26 26 26 26 26 26 26 27 27 27 27 26 25 24 22 22 21 20 19 19 18 18 17 17 17 17 17 17 17 17 17 17 17 17 17 17 17 17 16 16
23 24 24 24 25 25 25 26 26 26 26 26 27 26 27 25 23 22 21 21 20 19 19 18 18 17 17 17 17 17 17 17 17 17 17 17 17 17 17 17 17 17 17 16
23 22 23 23 25 24 24 25 26 26 26 26 26 26 25 23 22 21 20 20 20 19 18 18 18 17 17 17 17 17 17 17 17 17 17 17 17 17 17 17 17 16 16 16
21 21 22 23 22 21 25 25 25 25 25 26 26 25 23 22 20 18 18 18 18 18 17 17 17 17 17 17 17 17 17 17 16 16 16 16 16 16 17 16 16 16 16 16
21 20 21 21 21 22 24 24 24 23 23 24 24 23 21 19 19 18 17 17 17 16 16 16 16 16 16 16 17 16 16 16 16 16 16 16 16 16 16 16 16 16 16 15
20 20 20 20 20 21 23 22 22 22 22 23 22 21 20 20 20 18 16 15 15 15 15 15 15 16 16 16 16 16 16 16 16 16 15 16 16 16 16 16 15 15 15 15
19 19 19 20 20 21 21 21 21 21 21 21 20 20 19 20 18 15 14 14 14 14 14 15 15 15 15 15 15 15 15 15 15 15 15 15 15 15 15 15 15 15 14 14
20 20 19 19 19 20 20 20 20 19 18 18 18 18 17 16 14 14 13 13 13 13 13 14 14 14 14 14 14 14 14 14 14 14 14 14 14 14 14 14 14 14 14 14
19 19 19 19 19 18 17 17 17 16 17 17 16 15 15 14 13 13 12 12 12 12 12 12 13 13 13 13 14 13 13 13 13 13 13 13 13 13 13 13 13 13 13 13
19 18 17 17 17 17 16 15 15 15 15 15 15 14 14 13 12 12 12 11 12 12 12 12 12 12 12 12 13 12 12 13 13 13 12 12 12 12 12 12 12 12 12 12
18 17 16 16 16 16 14 14 14 14 13 13 13 13 13 12 11 11 11 11 11 11 11 11 11 11 11 11 12 12 12 12 12 12 12 12 12 11 11 11 11 11 11 11
16 15 15 15 14 14 13 13 12 12 12 12 12 12 12 12 11 11 11 10 10 10 10 11 11 11 11 11 11 11 11 11 11 11 11 11 11 11 11 11 11 10 10 10
Wind_Speed
12 12 14 13 12 9 7 9 9 6 4 6 8 8 5 4 7 8 8 8 9 10 9 10 11 11 12 12 13 14 15 14 13 11 11 10 10 9 8 8 9 9 8 8
11 16 15 10 9 10 11 11 10 6 2 6 8 9 5 5 6 7 7 8 9 9 9 10 11 11 12 13 13 15 17 16 15 12 11 10 10 8 8 7 8 9 9 8
17 7 9 11 12 12 12 11 9 8 7 6 8 9 5 4 5 6 7 8 8 9 10 11 12 12 12 13 14 14 17 17 16 14 11 10 9 8 7 8 8 8 9 9
14 11 8 12 14 13 12 8 8 9 10 7 4 9 3 4 5 7 7 8 8 8 9 10 11 12 12 13 13 14 15 16 16 15 13 15 12 10 9 8 8 8 9 9
10 10 12 14 13 12 10 5 8 9 10 11 8 9 4 3 4 5 6 7 8 8 8 9 10 11 12 12 12 12 14 15 15 15 15 14 12 9 8 8 9 9 8 9
10 6 8 10 9 9 8 7 8 9 10 11 7 8 6 2 2 2 4 6 7 7 8 8 10 11 11 12 12 12 14 14 15 15 15 14 13 12 11 10 10 9 8 8
13 14 12 10 10 9 11 11 9 9 9 8 2 6 5 3 1 1 3 5 7 7 8 9 10 11 12 13 13 13 14 13 14 15 14 13 13 12 12 11 11 9 8 8
12 11 12 12 14 10 12 13 11 9 8 7 4 6 3 1 1 2 4 6 7 8 8 9 10 11 12 13 13 13 15 14 15 14 14 12 12 10 10 11 10 10 8 8
8 7 6 7 9 11 11 12 12 12 12 10 7 5 3 2 3 5 6 7 7 8 8 9 10 11 12 13 13 14 14 14 14 14 13 12 12 12 11 11 10 9 8 8
7 7 7 6 7 9 10 9 8 11 10 11 9 7 4 2 3 6 7 8 8 8 9 9 10 11 11 12 12 13 13 13 14 14 13 11 12 12 11 11 11 10 10 9
9 9 8 8 10 10 9 10 10 10 10 11 11 5 2 1 2 5 7 8 8 9 9 9 9 10 11 11 12 13 13 13 13 13 12 12 12 12 12 11 12 11 10 10
7 7 10 10 5 4 10 12 12 11 11 11 12 8 3 1 2 4 6 7 8 8 8 9 10 11 11 12 11 12 12 12 12 12 12 12 12 12 12 12 12 11 11 11
4 6 9 9 9 8 9 11 12 13 12 12 13 7 5 3 2 4 6 8 8 9 9 9 10 10 11 11 11 11 11 11 11 12 12 12 12 12 11 11 11 11 11 11
3 7 11 12 7 5 8 10 11 13 13 14 15 12 4 3 3 4 6 7 9 9 9 10 10 10 9 10 10 10 10 11 11 12 12 12 11 11 11 10 10 11 11 11
4 9 11 12 11 11 13 14 13 15 16 16 14 12 8 3 2 3 5 8 9 9 9 10 10 9 9 9 9 10 10 11 11 11 11 10 10 10 10 10 9 10 10 11
3 7 10 13 13 14 17 18 18 18 18 18 17 15 6 2 2 3 5 7 9 9 9 9 9 9 9 9 9 9 9 9 9 10 10 9 9 9 9 9 9 9 9 10
5 6 10 14 12 13 18 18 19 19 18 18 18 13 5 4 3 3 4 6 7 8 8 8 8 8 8 8 8 9 9 8 9 9 8 8 8 8 8 8 8 8 8 8
7 8 7 11 10 15 10 5 9 13 15 14 12 7 5 3 3 3 3 4 6 6 6 6 7 7 7 7 8 8 8 8 8 8 7 7 7 8 7 7 7 7 6 6
6 7 7 9 12 13 10 5 6 9 12 9 8 6 6 7 6 4 4 4 5 6 6 5 6 6 7 7 8 9 8 8 7 6 6 6 6 6 6 6 5 5 4 4
6 7 9 9 10 10 4 1 4 7 10 4 6 7 9 9 5 3 6 7 8 8 7 7 7 8 8 8 9 9 8 7 6 6 5 5 5 6 5 4 4 3 4 4
7 8 11 12 12 9 2 4 4 7 3 2 3 6 7 4 3 8 9 9 9 10 10 9 9 9 9 9 10 11 10 8 7 7 7 6 6 6 5 5 4 3 3 3
7 7 8 8 10 7 5 4 4 4 5 2 1 4 6 9 11 11 11 11 11 12 12 12 12 11 10 10 11 12 11 9 9 10 10 9 8 7 6 6 5 4 3 4
5 5 5 5 5 4 5 5 7 6 4 1 3 7 10 12 12 13 12 12 12 13 13 13 13 13 12 12 12 13 11 10 11 11 11 10 10 9 8 7 6 5 4 3
3 3 6 6 6 5 5 5 6 4 2 2 6 9 12 14 15 14 13 12 13 13 13 13 14 15 14 13 13 12 11 10 11 11 10 9 9 9 9 7 6 6 5 4
5 4 5 7 7 5 5 5 3 4 6 8 9 10 13 16 16 15 14 13 13 13 12 13 14 14 14 13 13 12 11 10 11 10 9 8 9 8 8 9 8 7 8 7
3 4 5 4 5 3 3 5 6 7 9 11 13 13 14 16 17 16 15 13 13 13 13 13 14 14 14 13 13 11 10 10 9 9 8 7 7 6 6 7 8 12 9 10
Wind_Direction
196 216 221 222 231 260 268 268 268 277 305 288 282 287 272 225 227 224 215 206 202 205 196 188 188 189 185 185 183 181 182 180 178 176 176 174 175 174 174 176 174 179 182 181
200 225 230 234 236 246 251 257 261 263 288 290 293 286 264 230 228 227 220 211 208 203 194 190 188 187 188 187 186 185 185 183 182 181 178 177 173 174 173 175 173 183 186 185
216 219 215 220 225 235 243 250 266 286 296 252 283 268 216 206 213 216 219 217 212 206 201 196 194 192 190 189 188 188 185 182 183 178 171 167 163 167 171 175 178 184 186 190
230 230 218 223 229 234 242 246 265 276 280 279 286 292 256 200 214 212 211 210 209 205 203 197 192 190 190 191 190 187 182 182 181 177 177 175 177 177 180 180 178 180 186 189
216 217 219 227 232 232 247 259 261 269 273 278 259 279 285 196 245 219 205 207 206 201 197 194 190 189 189 186 184 182 178 180 179 181 183 182 182 179 174 176 176 184 185 193
232 212 228 234 231 230 233 235 244 250 256 259 271 281 289 289 285 213 184 191 196 194 191 188 185 183 184 182 181 178 178 180 179 181 184 186 182 175 174 179 179 187 188 193
226 227 226 232 232 211 218 233 240 239 238 255 240 271 289 351 344 218 181 176 180 183 183 180 179 179 180 179 179 179 178 180 179 180 183 186 184 179 180 184 187 191 194 197
217 219 211 216 228 228 218 234 247 261 266 272 216 263 297 63 110 161 165 162 169 175 176 177 177 179 179 179 179 179 181 181 179 181 184 187 185 186 188 193 193 196 202 203
221 212 173 209 221 232 223 232 252 263 270 274 269 265 254 188 176 168 167 165 164 169 172 174 175 177 176 178 180 178 179 179 181 184 184 186 190 194 194 193 200 202 205 202
236 235 206 193 203 219 247 247 238 250 260 266 268 264 274 223 193 169 171 170 162 163 168 172 174 174 173 175 176 177 180 180 182 184 187 190 194 198 197 197 202 206 203 203
234 239 217 205 219 219 210 225 238 250 259 267 275 277 42 321 207 184 175 173 169 164 165 167 171 170 168 169 171 177 179 182 186 188 190 190 194 197 197 201 206 207 203 202
217 239 244 231 232 268 245 243 237 245 251 253 271 278 81 68 176 177 169 164 165 162 163 165 166 166 169 171 172 175 175 179 184 184 185 189 192 195 198 202 206 206 204 204
192 228 238 226 215 211 232 237 242 247 257 255 259 263 122 130 154 162 164 163 166 166 165 165 165 167 172 173 172 171 173 176 178 178 182 185 189 193 199 202 204 204 204 206
252 243 252 260 272 241 234 235 238 243 247 253 254 264 236 204 194 170 168 167 166 166 168 167 165 166 170 171 171 172 175 176 177 176 181 184 190 193 195 198 200 202 204 207
259 251 255 266 275 269 262 256 247 247 255 262 267 267 268 237 214 179 170 167 163 162 165 167 165 162 164 165 169 173 175 177 177 177 181 185 187 190 193 196 199 201 206 210
259 267 265 262 261 264 264 259 255 253 254 257 263 266 269 219 174 174 172 168 167 164 164 164 163 161 164 166 169 170 171 173 174 178 182 184 184 186 190 192 195 199 206 213
247 255 264 265 266 268 258 254 254 253 253 255 256 258 220 200 179 168 164 167 169 163 160 159 162 164 167 169 171 171 170 168 170 175 179 179 182 184 189 192 192 197 203 208
255 258 259 266 266 254 261 277 268 265 259 256 258 248 218 171 125 107 137 150 148 147 147 150 155 157 161 161 160 161 160 163 166 169 172 176 179 179 179 183 187 191 194 198
233 242 251 253 254 261 262 266 270 267 264 255 242 204 161 143 125 104 98 114 122 120 120 122 128 133 137 142 147 146 147 148 149 151 155 163 170 167 167 173 174 176 179 191
206 227 243 246 254 256 268 23 321 282 258 225 194 171 167 173 191 152 110 108 106 100 97 99 104 104 110 118 126 128 126 123 122 120 120 121 130 136 140 142 144 148 161 172
219 226 236 248 252 258 337 333 286 248 281 54 161 169 179 191 117 117 114 105 103 99 95 92 91 89 89 98 107 107 104 101 99 101 102 103 107 109 108 108 110 116 121 124
256 253 245 249 249 250 18 320 278 312 344 350 118 134 120 109 110 115 111 108 105 101 96 94 90 85 81 87 96 95 90 91 94 94 91 88 86 89 96 98 96 97 107 119
251 273 281 267 279 336 336 312 304 299 287 282 115 118 122 120 119 115 110 106 102 99 95 93 92 86 79 78 84 87 85 88 90 87 83 82 79 74 74 82 88 92 89 86
246 273 264 269 278 304 322 322 314 296 243 149 128 127 126 123 120 115 109 104 100 96 94 93 90 86 79 76 76 79 83 85 87 85 82 81 79 76 70 61 61 62 58 59
290 283 268 269 283 308 335 348 14 68 96 104 110 118 123 122 119 115 110 104 99 94 91 90 88 85 82 77 74 72 75 81 83 81 79 79 78 76 73 67 51 55 53 43
292 280 275 291 327 326 341 32 73 94 103 111 116 116 118 118 115 112 108 104 100 97 95 91 88 86 83 79 73 68 70 76 80 80 76 75 76 73 75 81 81 64 70 76
Height
1492 1491 1488 1483 1482 1481 1482 1484 1483 1478 1475 1476 1474 1472 1472 1476 1478 1479 1481 1484 1487 1490 1492 1494 1496 1498 1500 1502 1505 1508 1512 1517 1522 1527 1532 1536 1540 1544 1548 1551 1554 1556 1559 1560
1490 1488 1481 1480 1482 1484 1484 1485 1480 1475 1474 1475 1474 1471 1469 1473 1475 1477 1479 1482 1485 1487 1490 1492 1493 1495 1497 1499 1502 1505 1509 1514 1520 1524 1530 1534 1539 1543 1546 1550 1552 1555 1557 1559
1482 1477 1477 1481 1483 1485 1482 1482 1479 1478 1473 1471 1474 1469 1467 1470 1474 1476 1478 1480 1482 1485 1487 1489 1490 1492 1495 1497 1500 1503 1507 1512 1517 1522 1528 1532 1536 1541 1544 1548 1551 1553 1556 1558
1478 1474 1478 1480 1480 1480 1481 1475 1476 1477 1477 1472 1474 1478 1465 1465 1469 1472 1475 1477 1479 1482 1484 1486 1488 1490 1492 1495 1498 1501 1504 1509 1515 1520 1525 1529 1533 1538 1542 1545 1549 1552 1554 1557
1474 1473 1476 1478 1475 1475 1474 1473 1475 1474 1475 1475 1469 1475 1464 1462 1465 1466 1470 1474 1477 1479 1482 1484 1486 1488 1490 1493 1496 1499 1502 1507 1512 1517 1522 1527 1531 1536 1540 1544 1547 1550 1553 1555
1468 1471 1471 1469 1469 1471 1472 1475 1474 1473 1471 1482 1471 1476 1470 1457 1461 1463 1468 1472 1475 1478 1480 1482 1484 1486 1489 1492 1494 1497 1501 1505 1510 1515 1520 1525 1529 1533 1537 1541 1544 1548 1551 1553
1471 1468 1467 1468 1469 1470 1472 1477 1484 1484 1482 1478 1467 1473 1466 1457 1459 1463 1466 1470 1473 1476 1478 1480 1482 1484 1487 1490 1492 1495 1499 1503 1508 1513 1518 1523 1527 1531 1535 1539 1542 1546 1549 1551
1470 1469 1461 1462 1465 1465 1467 1469 1483 1490 1484 1471 1467 1470 1459 1457 1461 1464 1467 1469 1472 1475 1477 1479 1481 1483 1485 1488 1490 1493 1497 1501 1506 1511 1516 1521 1525 1529 1533 1537 1540 1543 1546 1548
1463 1464 1458 1459 1460 1461 1464 1465 1458 1468 1471 1475 1466 1460 1455 1456 1460 1463 1466 1468 1471 1473 1476 1478 1480 1482 1485 1487 1489 1493 1496 1500 1505 1509 1514 1518 1523 1527 1531 1534 1537 1541 1543 1546
1456 1465 1457 1457 1459 1460 1458 1456 1463 1469 1482 1483 1470 1463 1459 1455 1457 1460 1464 1467 1470 1472 1475 1477 1479 1482 1485 1487 1489 1493 1496 1500 1504 1508 1512 1516 1520 1524 1528 1532 1535 1538 1540 1543
1456 1463 1459 1457 1459 1457 1461 1462 1462 1461 1463 1477 1478 1466 1448 1452 1455 1458 1462 1466 1469 1471 1474 1476 1479 1481 1484 1487 1490 1492 1496 1499 1503 1507 1510 1514 1518 1522 1525 1528 1532 1534 1537 1539
1457 1458 1459 1454 1451 1454 1454 1455 1458 1469 1469 1466 1469 1463 1449 1452 1454 1458 1461 1465 1468 1471 1473 1476 1478 1481 1483 1486 1489 1492 1495 1498 1502 1505 1509 1511 1515 1519 1522 1525 1529 1531 1534 1536
1458 1462 1468 1463 1460 1457 1456 1453 1453 1454 1457 1462 1466 1460 1451 1453 1455 1459 1462 1465 1468 1471 1473 1475 1478 1480 1483 1485 1488 1491 1494 1497 1501 1504 1507 1510 1513 1516 1519 1522 1525 1528 1531 1533
1461 1459 1462 1464 1456 1451 1456 1455 1454 1456 1459 1458 1456 1452 1449 1452 1455 1459 1462 1465 1468 1470 1472 1475 1477 1479 1482 1484 1487 1490 1493 1496 1499 1502 1505 1508 1511 1514 1517 1520 1522 1525 1527 1530
1460 1459 1456 1453 1451 1451 1453 1453 1452 1455 1452 1454 1449 1447 1446 1450 1455 1459 1462 1465 1467 1470 1472 1474 1476 1478 1481 1483 1486 1489 1492 1495 1498 1501 1503 1506 1509 1512 1514 1517 1519 1522 1524 1526
1461 1461 1459 1457 1452 1452 1453 1449 1449 1449 1448 1448 1447 1447 1446 1452 1457 1460 1462 1464 1466 1469 1471 1473 1475 1478 1480 1482 1484 1487 1490 1493 1496 1499 1502 1504 1507 1509 1512 1514 1516 1518 1520 1522
1459 1463 1464 1459 1451 1454 1455 1445 1444 1443 1441 1443 1445 1444 1448 1453 1457 1460 1462 1464 1466 1469 1471 1472 1474 1476 1478 1481 1483 1486 1489 1492 1495 1497 1500 1502 1505 1507 1509 1511 1513 1515 1517 1519
1463 1464 1463 1460 1461 1468 1444 1438 1440 1441 1439 1439 1440 1444 1449 1454 1459 1462 1464 1465 1467 1469 1470 1472 1474 1476 1478 1480 1482 1485 1488 1491 1494 1496 1498 1500 1503 1505 1506 1508 1510 1512 1513 1515
1463 1464 1463 1462 1461 1454 1443 1441 1442 1444 1442 1439 1441 1446 1452 1456 1459 1463 1464 1466 1467 1469 1470 1472 1474 1476 1478 1480 1482 1484 1487 1490 1492 1494 1496 1498 1500 1502 1504 1505 1507 1508 1510 1511
1462 1463 1463 1461 1465 1460 1444 1443 1445 1446 1444 1440 1442 1447 1452 1454 1455 1461 1465 1466 1468 1469 1471 1472 1474 1476 1478 1480 1482 1484 1487 1489 1491 1493 1495 1497 1499 1500 1502 1503 1505 1506 1507 1508
1461 1461 1461 1459 1459 1448 1444 1445 1446 1451 1446 1444 1444 1448 1451 1453 1457 1464 1466 1467 1469 1470 1472 1473 1475 1477 1479 1481 1482 1484 1487 1489 1491 1493 1495 1496 1498 1499 1501 1502 1503 1504 1506 1507
1456 1456 1457 1456 1458 1453 1447 1446 1448 1448 1447 1446 1448 1450 1453 1456 1460 1464 1467 1469 1471 1472 1474 1475 1477 1478 1480 1482 1484 1485 1487 1490 1492 1494 1495 1497 1498 1499 1500 1501 1502 1504 1505 1506
1455 1456 1454 1454 1454 1451 1451 1451 1450 1450 1449 1449 1450 1453 1455 1458 1463 1467 1470 1472 1474 1475 1477 1479 1480 1481 1483 1484 1486 1487 1489 1492 1494 1495 1496 1498 1499 1500 1501 1502 1503 1504 1504 1506
1454 1457 1456 1455 1451 1452 1452 1450 1449 1448 1448 1450 1452 1454 1457 1460 1465 1469 1472 1475 1477 1478 1480 1482 1483 1484 1486 1487 1489 1490 1492 1494 1495 1497 1498 1499 1501 1501 1502 1503 1504 1504 1505 1506
1455 1456 1455 1454 1453 1452 1452 1451 1449 1448 1448 1450 1454 1457 1460 1463 1467 1471 1475 1478 1480 1482 1484 1486 1487 1488 1489 1491 1492 1494 1495 1497 1498 1499 1500 1502 1503 1503 1503 1504 1504 1504 1504 1505
1456 1457 1457 1456 1455 1454 1454 1452 1451 1450 1451 1453 1456 1460 1464 1467 1470 1474 1478 1482 1484 1486 1488 1490 1491 1492 1494 1495 1496 1498 1499 1500 1500 1502 1503 1504 1505 1505 1506 1506 1506 1505 1505 1505